This demonstration page uses our WeatherBlox Daily Observations layout. Learn more.

Left ArrowRight Arrow

44.89941, -97.11507

Hourly Observations for February 26, 2021

Temp ( °F °C ) Dew Point ( °F °C ) Humidity (%) Winds ( mph kmh ) Pressure ( in mb ) Visibility ( mi km ) Precip ( " mm )
12:53 am 00:53 Clear 32 0 26 -3.3 79 79 S 15 24 29.91 1013 10 16 0.00 0.00
1:53 am 01:53 Clear 33 0.6 25 -3.9 72 72 S 18 30 29.88 1012 10 16 0.00 0.00
2:53 am 02:53 Clear 32 0 26 -3.3 79 79 S 18 30 29.83 1010 10 16 0.00 0.00
3:53 am 03:53 Clear 33 0.6 25 -3.9 72 72 S 29 46 29.77 1008 10 16 0.00 0.00
4:53 am 04:53 Clear 33 0.6 24 -4.4 70 70 S 22 35 29.73 1007 10 16 0.00 0.00
5:53 am 05:53 Clear 34 1.1 22 -5.6 61 61 S 29 46 29.72 1006 10 16 0.00 0.00
6:53 am 06:53 Clear 33 0.6 22 -5.6 64 64 SSW 31 50 29.70 1006 10 16 0.00 0.00
7:53 am 07:53 Sunny 33 0.6 22 -5.6 64 64 SSW 31 50 29.69 1005 10 16 0.00 0.00
8:53 am 08:53 Sunny 33 0.6 23 -5 66 66 SSW 30 48 29.68 1005 10 16 0.00 0.00
9:53 am 09:53 Sunny 36 2.2 24 -4.4 62 62 SSW 24 39 29.68 1005 10 16 0.00 0.00
10:53 am 10:53 Mostly Cloudy 38 3.3 25 -3.9 60 60 SSW 22 35 29.67 1005 10 16 0.00 0.00
11:53 am 11:53 Cloudy 39 3.9 26 -3.3 60 60 SSW 21 33 29.67 1005 10 16 0.00 0.00
12:53 pm 12:53 Cloudy 42 5.6 27 -2.8 55 55 SSW 17 28 29.65 1004 10 16 0.00 0.00
1:53 pm 13:53 Mostly Cloudy 43 6.1 28 -2.2 56 56 SSW 15 24 29.63 1004 10 16 0.00 0.00
2:53 pm 14:53 Sunny 44 6.7 27 -2.8 51 51 SW 20 31 29.60 1003 10 16 0.00 0.00
3:53 pm 15:53 Mostly Sunny 43 6.1 29 -1.7 58 58 SSW 14 22 29.61 1003 10 16 0.00 0.00
4:53 pm 16:53 Sunny 42 5.6 30 -1.1 62 62 SSW 13 20 29.61 1003 10 16 0.00 0.00
5:53 pm 17:53 Sunny 38 3.3 30 -1.1 73 73 SSW 12 19 29.62 1003 10 16 0.00 0.00
6:53 pm 18:53 Clear 34 1.1 29 -1.7 82 82 SSW 10 17 29.63 1004 10 16 0.00 0.00
7:53 pm 19:53 Clear 32 0 27 -2.8 82 82 SSW 10 17 29.64 1004 10 16 0.00 0.00
8:53 pm 20:53 Mostly Cloudy 33 0.6 27 -2.8 78 78 SSW 10 17 29.65 1004 10 16 0.00 0.00
9:53 pm 21:53 Mostly Cloudy 34 1.1 27 -2.8 76 76 SW 10 17 29.67 1005 10 16 0.00 0.00
10:53 pm 22:53 Partly Cloudy 34 1.1 26 -3.3 73 73 SSW 12 19 29.67 1005 10 16 0.00 0.00
11:53 pm 23:53 Clear 31 -0.6 25 -3.9 79 79 SSW 10 17 29.69 1005 10 16 0.00 0.00

Powered by AerisWeather